Home   Weather   Valladolid   Past weeks

Flag for Spain Past Weather in Valladolid, Spain — Yesterday and Last 2 Weeks

55 °F

Partly cloudy.

Feels Like: 53 °F
Forecast: 47 / 57 °F
Wind: 9 mph from South

Location: Valladolid / Villanubla

Current Time: Oct 23, 2016 at 5:14:24 AM

Latest Report: Oct 23, 2016 at 2:30 AM

Visibility: N/A

Pressure: 29.62 "Hg (27.21 "Hg at 712m altitude)

Humidity: 88%

Dew Point: 52 °F

Location of ValladolidLocation

Past Weather in Valladolid — Graph


Valladolid Temperature Yesterday

Maximum temperature yesterday: 63 °F (at 4:30 PM)
Minimum temperature yesterday: 45 °F (at 7:00 AM)
Average temperature yesterday: 55 °F

High & Low Weather Summary for the Past Weeks

High73 °F (Oct 8, 5:30 PM)100% (Oct 12, 9:00 AM)30.36 "Hg (Oct 12, 9:00 AM)
Low37 °F (Oct 11, 8:30 AM)25% (Oct 8, 4:00 PM)29.56 "Hg (Oct 13, 7:00 AM)
Average56 °F68%29.99 "Hg
* Reported Oct 8 7:00 AM — Oct 23 2:30 AM, Valladolid, Weather by CustomWeather, © 2016

Note: Actual official high and low records may vary slightly from our data, if they occured in-between our weather recording intervals... More about our weather records


Valladolid Weather History for the Previous 24 Hours

Scroll right to see more
Time TempWeatherWind HumidityBarometerVisibility
2:30 AM
Sun, Oct 23
55 °FPartly cloudy.9 mph88%29.62 "HgN/A
2:00 AM54 °FPassing clouds.9 mph94%29.62 "HgN/A
1:30 AM55 °FPassing clouds.9 mph88%29.62 "HgN/A
1:00 AM55 °FPassing clouds.9 mph88%29.65 "HgN/A
12:30 AM55 °FLight rain. Passing clouds.8 mph88%29.65 "HgN/A
12:00 AM55 °FClear.9 mph88%29.65 "Hg10 mi
11:30 PM
Sat, Oct 22
55 °FClear.10 mph94%29.68 "Hg10 mi
11:00 PM55 °FClear.8 mph94%29.68 "Hg10 mi
10:30 PM55 °FClear.7 mph94%29.68 "Hg10 mi
10:00 PM55 °FPartly cloudy.7 mph94%29.68 "HgN/A
9:30 PM55 °FLight rain. Partly cloudy.6 mph94%29.71 "HgN/A
9:00 PM55 °FRain. Partly cloudy.6 mph94%29.71 "HgN/A
8:30 PM55 °FLight rain. Partly cloudy.1 mph94%29.71 "HgN/A
8:00 PM57 °FLight rain. Partly cloudy.6 mph88%29.71 "HgN/A
7:48 PM57 °FRain. Passing clouds.6 mph88%29.71 "Hg5 mi
7:30 PM59 °FPassing clouds.2 mph77%29.71 "HgN/A
7:00 PM61 °FBroken clouds.5 mph72%29.71 "HgN/A
6:30 PM61 °FBroken clouds.8 mph72%29.71 "HgN/A
6:00 PM63 °FBroken clouds.5 mph68%29.71 "HgN/A
5:30 PM63 °FBroken clouds.6 mph68%29.71 "HgN/A
5:00 PM63 °FBroken clouds.5 mph68%29.74 "HgN/A
4:30 PM63 °FBroken clouds.3 mph68%29.74 "HgN/A
4:00 PM61 °FBroken clouds.2 mph72%29.74 "HgN/A
3:30 PM61 °FPartly sunny.2 mph72%29.74 "HgN/A
3:00 PM59 °FPartly sunny.1 mph82%29.77 "HgN/A
2:30 PM57 °FBroken clouds.1 mph82%29.77 "HgN/A
2:00 PM57 °FBroken clouds.3 mph82%29.80 "HgN/A
1:30 PM55 °FBroken clouds.3 mph82%29.80 "HgN/A
1:00 PM54 °FBroken clouds.5 mph88%29.80 "HgN/A
12:30 PM54 °FPartly sunny.5 mph82%29.80 "HgN/A
12:00 PM52 °FPartly sunny.3 mph88%29.80 "HgN/A
11:30 AM50 °FPartly sunny.2 mph94%29.80 "HgN/A
11:00 AM50 °FPartly sunny.2 mph88%29.83 "HgN/A
10:30 AM50 °FPartly sunny.3 mph88%29.83 "HgN/A
10:00 AM48 °FPartly sunny.5 mph87%29.80 "HgN/A
9:30 AM46 °FPartly sunny.3 mph93%29.80 "HgN/A
9:00 AM46 °FPartly sunny.5 mph93%29.80 "HgN/A
8:30 AM46 °FPassing clouds.3 mph93%29.80 "HgN/A
8:00 AM46 °FLight rain. Partly cloudy.2 mph93%29.80 "HgN/A
7:30 AM46 °FLight rain. Passing clouds.2 mph87%29.83 "HgN/A
7:00 AM45 °FRain. Passing clouds.2 mph87%29.83 "Hg4 mi
Weather by CustomWeather, © 2016

See weather overviewHow to use our weather pages